Location: Howard City Library
(37.4684°N, 96.2639°W)
Time: 10:16:45
(UTC+00:00)

STARLINK-79 - Pass Details

Date: 18 February 2020
Orbit: 529 x 531 km, 53.0° (Epoch: 30 March)

Event Time Altitude Azimuth Distance (km) Brightness Sun altitude
Rises 01:27:05 0° 231° (SW) 2,651 8.0 -16.7°
Reaches altitude 10° 01:29:17 10° 233° (SW) 1,765 7.0 -17.1°
Maximum altitude 01:33:17 74° 319° (NW) 554 3.6 -17.9°
Enters shadow 01:35:07 31° 38° (NE) 951 4.5 -18.3°
